Year,Month,Day,Hour,Minute,Value (Times are PST for temperature in C)
2015,07,06,00,00,22.20
2015,07,06,00,01,22.20
2015,07,06,00,02,22.10
2015,07,06,00,03,22.10
2015,07,06,00,04,22.10
2015,07,06,00,05,22.10
2015,07,06,00,06,22.10
2015,07,06,00,07,22.00
2015,07,06,00,08,22.00
2015,07,06,00,09,22.00
2015,07,06,00,10,21.90
2015,07,06,00,11,21.90
2015,07,06,00,12,21.90
2015,07,06,00,13,21.80
2015,07,06,00,14,21.80
2015,07,06,00,15,21.80
2015,07,06,00,16,21.80
2015,07,06,00,17,21.70
2015,07,06,00,18,21.70
2015,07,06,00,19,21.70
2015,07,06,00,20,21.70
2015,07,06,00,21,21.60
2015,07,06,00,22,21.60
2015,07,06,00,23,21.60
2015,07,06,00,24,21.60
2015,07,06,00,25,21.60
2015,07,06,00,26,21.60
2015,07,06,00,27,21.60
2015,07,06,00,28,21.60
2015,07,06,00,29,21.50
2015,07,06,00,30,21.50
2015,07,06,00,31,21.50
2015,07,06,00,32,21.50
2015,07,06,00,33,21.40
2015,07,06,00,34,21.40
2015,07,06,00,35,21.40
2015,07,06,00,36,21.40
2015,07,06,00,37,21.40
2015,07,06,00,38,21.30
2015,07,06,00,39,21.30
2015,07,06,00,40,21.30
2015,07,06,00,41,21.30
2015,07,06,00,42,21.30
2015,07,06,00,43,21.30
2015,07,06,00,44,21.20
2015,07,06,00,45,21.20
2015,07,06,00,46,21.20
2015,07,06,00,47,21.20
2015,07,06,00,48,21.20
2015,07,06,00,49,21.20
2015,07,06,00,50,21.20
2015,07,06,00,51,21.20
2015,07,06,00,52,21.20
2015,07,06,00,53,21.20
2015,07,06,00,54,21.20
2015,07,06,00,55,21.20
2015,07,06,00,56,21.20
2015,07,06,00,57,21.20
2015,07,06,00,58,21.20
2015,07,06,00,59,21.20
2015,07,06,01,00,21.20
2015,07,06,01,01,21.20
2015,07,06,01,02,21.20
2015,07,06,01,03,21.20
2015,07,06,01,04,21.20
2015,07,06,01,05,21.20
2015,07,06,01,06,21.20
2015,07,06,01,07,21.20
2015,07,06,01,08,21.30
2015,07,06,01,09,21.30
2015,07,06,01,10,21.30
2015,07,06,01,11,21.30
2015,07,06,01,12,21.30
2015,07,06,01,13,21.30
2015,07,06,01,14,21.30
2015,07,06,01,15,21.30
2015,07,06,01,16,21.30
2015,07,06,01,17,21.30
2015,07,06,01,18,21.40
2015,07,06,01,19,21.40
2015,07,06,01,20,21.40
2015,07,06,01,21,21.40
2015,07,06,01,22,21.40
2015,07,06,01,23,21.40
2015,07,06,01,24,21.40
2015,07,06,01,25,21.40
2015,07,06,01,26,21.40
2015,07,06,01,27,21.50
2015,07,06,01,28,21.50
2015,07,06,01,29,21.50
2015,07,06,01,30,21.50
2015,07,06,01,31,21.50
2015,07,06,01,32,21.50
2015,07,06,01,33,21.50
2015,07,06,01,34,21.50
2015,07,06,01,35,21.50
2015,07,06,01,36,21.50
2015,07,06,01,37,21.50
2015,07,06,01,38,21.50
2015,07,06,01,39,21.50
2015,07,06,01,40,21.40
2015,07,06,01,41,21.40
2015,07,06,01,42,21.40
2015,07,06,01,43,21.40
2015,07,06,01,44,21.40
2015,07,06,01,45,21.40
2015,07,06,01,46,21.30
2015,07,06,01,47,21.30
2015,07,06,01,48,21.30
2015,07,06,01,49,21.30
2015,07,06,01,50,21.30
2015,07,06,01,51,21.30
2015,07,06,01,52,21.30
2015,07,06,01,53,21.30
2015,07,06,01,54,21.20
2015,07,06,01,55,21.20
2015,07,06,01,56,21.20
2015,07,06,01,57,21.20
2015,07,06,01,58,21.20
2015,07,06,01,59,21.20
2015,07,06,02,00,21.20
2015,07,06,02,01,21.20
2015,07,06,02,02,21.10
2015,07,06,02,03,21.10
2015,07,06,02,04,21.10
2015,07,06,02,05,21.00
2015,07,06,02,06,21.00
2015,07,06,02,07,20.90
2015,07,06,02,08,20.80
2015,07,06,02,09,20.70
2015,07,06,02,10,20.60
2015,07,06,02,11,20.50
2015,07,06,02,12,20.40
2015,07,06,02,13,20.20
2015,07,06,02,14,20.10
2015,07,06,02,15,19.90
2015,07,06,02,16,19.80
2015,07,06,02,17,19.60
2015,07,06,02,18,19.50
2015,07,06,02,19,19.40
2015,07,06,02,20,19.30
2015,07,06,02,21,19.10
2015,07,06,02,22,19.10
2015,07,06,02,23,19.00
2015,07,06,02,24,18.90
2015,07,06,02,25,18.90
2015,07,06,02,26,18.90
2015,07,06,02,27,18.80
2015,07,06,02,28,18.80
2015,07,06,02,29,18.80
2015,07,06,02,30,18.80
2015,07,06,02,31,18.70
2015,07,06,02,32,18.70
2015,07,06,02,33,18.70
2015,07,06,02,34,18.70
2015,07,06,02,35,18.70
2015,07,06,02,36,18.70
2015,07,06,02,37,18.60
2015,07,06,02,38,18.60
2015,07,06,02,39,18.60
2015,07,06,02,40,18.70
2015,07,06,02,41,18.70
2015,07,06,02,42,18.80
2015,07,06,02,43,18.90
2015,07,06,02,44,19.00
2015,07,06,02,45,19.20
2015,07,06,02,46,19.30
2015,07,06,02,47,19.40
2015,07,06,02,48,19.50
2015,07,06,02,49,19.70
2015,07,06,02,50,19.80
2015,07,06,02,51,19.80
2015,07,06,02,52,19.90
2015,07,06,02,53,19.90
2015,07,06,02,54,20.00
2015,07,06,02,55,20.10
2015,07,06,02,56,20.10
2015,07,06,02,57,20.20
2015,07,06,02,58,20.30
2015,07,06,02,59,20.40
2015,07,06,03,00,20.40
2015,07,06,03,01,20.50
2015,07,06,03,02,20.50
2015,07,06,03,03,20.50
2015,07,06,03,04,20.60
2015,07,06,03,05,20.50
2015,07,06,03,06,20.50
2015,07,06,03,07,20.40
2015,07,06,03,08,20.40
2015,07,06,03,09,20.40
2015,07,06,03,10,20.30
2015,07,06,03,11,20.30
2015,07,06,03,12,20.30
2015,07,06,03,13,20.20
2015,07,06,03,14,20.20
2015,07,06,03,15,20.10
2015,07,06,03,16,20.00
2015,07,06,03,17,20.00
2015,07,06,03,18,19.90
2015,07,06,03,19,19.80
2015,07,06,03,20,19.70
2015,07,06,03,21,19.60
2015,07,06,03,22,19.50
2015,07,06,03,23,19.40
2015,07,06,03,24,19.30
2015,07,06,03,25,19.30
2015,07,06,03,26,19.20
2015,07,06,03,27,19.20
2015,07,06,03,28,19.10
2015,07,06,03,29,19.00
2015,07,06,03,30,19.00
2015,07,06,03,31,18.90
2015,07,06,03,32,18.90
2015,07,06,03,33,18.80
2015,07,06,03,34,18.80
2015,07,06,03,35,18.80
2015,07,06,03,36,18.80
2015,07,06,03,37,18.80
2015,07,06,03,38,18.80
2015,07,06,03,39,18.80
2015,07,06,03,40,18.80
2015,07,06,03,41,18.80
2015,07,06,03,42,18.80
2015,07,06,03,43,18.70
2015,07,06,03,44,18.70
2015,07,06,03,45,18.70
2015,07,06,03,46,18.70
2015,07,06,03,47,18.70
2015,07,06,03,48,18.70
2015,07,06,03,49,18.70
2015,07,06,03,50,18.70
2015,07,06,03,51,18.70
2015,07,06,03,52,18.70
2015,07,06,03,53,18.70
2015,07,06,03,54,18.60
2015,07,06,03,55,18.60
2015,07,06,03,56,18.60
2015,07,06,03,57,18.60
2015,07,06,03,58,18.60
2015,07,06,03,59,18.60
2015,07,06,04,00,18.50
2015,07,06,04,01,18.50
2015,07,06,04,02,18.50
2015,07,06,04,03,18.50
2015,07,06,04,04,18.50
2015,07,06,04,05,18.50
2015,07,06,04,06,18.50
2015,07,06,04,07,18.40
2015,07,06,04,08,18.40
2015,07,06,04,09,18.40
2015,07,06,04,10,18.40
2015,07,06,04,11,18.40
2015,07,06,04,12,18.40
2015,07,06,04,13,18.40
2015,07,06,04,14,18.40
2015,07,06,04,15,18.40
2015,07,06,04,16,18.40
2015,07,06,04,17,18.50
2015,07,06,04,18,18.50
2015,07,06,04,19,18.50
2015,07,06,04,20,18.50
2015,07,06,04,21,18.60
2015,07,06,04,22,18.60
2015,07,06,04,23,18.50
2015,07,06,04,24,18.50
2015,07,06,04,25,18.50
2015,07,06,04,26,18.40
2015,07,06,04,27,18.40
2015,07,06,04,28,18.40
2015,07,06,04,29,18.30
2015,07,06,04,30,18.30
2015,07,06,04,31,18.30
2015,07,06,04,32,18.30
2015,07,06,04,33,18.30
2015,07,06,04,34,18.30
2015,07,06,04,35,18.30
2015,07,06,04,36,18.30
2015,07,06,04,37,18.30
2015,07,06,04,38,18.30
2015,07,06,04,39,18.30
2015,07,06,04,40,18.30
2015,07,06,04,41,18.30
2015,07,06,04,42,18.40
2015,07,06,04,43,18.40
2015,07,06,04,44,18.40
2015,07,06,04,45,18.40
2015,07,06,04,46,18.40
2015,07,06,04,47,18.40
2015,07,06,04,48,18.40
2015,07,06,04,49,18.40
2015,07,06,04,50,18.40
2015,07,06,04,51,18.40
2015,07,06,04,52,18.40
2015,07,06,04,53,18.40
2015,07,06,04,54,18.40
2015,07,06,04,55,18.50
2015,07,06,04,56,18.50
2015,07,06,04,57,18.50
2015,07,06,04,58,18.50
2015,07,06,04,59,18.40
2015,07,06,05,00,18.40
2015,07,06,05,01,18.30
2015,07,06,05,02,18.20
2015,07,06,05,03,18.20
2015,07,06,05,04,18.20
2015,07,06,05,05,18.20
2015,07,06,05,06,18.20
2015,07,06,05,07,18.20
2015,07,06,05,08,18.20
2015,07,06,05,09,18.10
2015,07,06,05,10,18.10
2015,07,06,05,11,18.10
2015,07,06,05,12,18.10
2015,07,06,05,13,18.00
2015,07,06,05,14,17.90
2015,07,06,05,15,17.80
2015,07,06,05,16,17.60
2015,07,06,05,17,17.50
2015,07,06,05,18,17.30
2015,07,06,05,19,17.00
2015,07,06,05,20,16.80
2015,07,06,05,21,16.50
2015,07,06,05,22,16.20
2015,07,06,05,23,16.00
2015,07,06,05,24,15.80
2015,07,06,05,25,15.60
2015,07,06,05,26,15.40
2015,07,06,05,27,15.30
2015,07,06,05,28,15.20
2015,07,06,05,29,15.10
2015,07,06,05,30,15.00
2015,07,06,05,31,14.90
2015,07,06,05,32,14.80
2015,07,06,05,33,14.80
2015,07,06,05,34,14.70
2015,07,06,05,35,14.70
2015,07,06,05,36,14.70
2015,07,06,05,37,14.70
2015,07,06,05,38,14.70
2015,07,06,05,39,14.70
2015,07,06,05,40,14.70
2015,07,06,05,41,14.70
2015,07,06,05,42,14.70
2015,07,06,05,43,14.70
2015,07,06,05,44,14.70
2015,07,06,05,45,14.70
2015,07,06,05,46,14.70
2015,07,06,05,47,14.70
2015,07,06,05,48,14.70
2015,07,06,05,49,14.80
2015,07,06,05,50,14.80
2015,07,06,05,51,14.80
2015,07,06,05,52,14.80
2015,07,06,05,53,14.80
2015,07,06,05,54,14.80
2015,07,06,05,55,14.80
2015,07,06,05,56,14.80
2015,07,06,05,57,14.70
2015,07,06,05,58,14.70
2015,07,06,05,59,14.70
2015,07,06,06,00,14.60
2015,07,06,06,01,14.50
2015,07,06,06,02,14.40
2015,07,06,06,03,14.40
2015,07,06,06,04,14.30
2015,07,06,06,05,14.20
2015,07,06,06,06,14.20
2015,07,06,06,07,14.20
2015,07,06,06,08,14.10
2015,07,06,06,09,14.10
2015,07,06,06,10,14.10
2015,07,06,06,11,14.10
2015,07,06,06,12,14.10
2015,07,06,06,13,14.10
2015,07,06,06,14,14.10
2015,07,06,06,15,14.20
2015,07,06,06,16,14.20
2015,07,06,06,17,14.30
2015,07,06,06,18,14.30
2015,07,06,06,19,14.40
2015,07,06,06,20,14.50
2015,07,06,06,21,14.50
2015,07,06,06,22,14.60
2015,07,06,06,23,14.70
2015,07,06,06,24,14.80
2015,07,06,06,25,14.80
2015,07,06,06,26,14.90
2015,07,06,06,27,15.00
2015,07,06,06,28,15.10
2015,07,06,06,29,15.10
2015,07,06,06,30,15.20
2015,07,06,06,31,15.30
2015,07,06,06,32,15.30
2015,07,06,06,33,15.40
2015,07,06,06,34,15.40
2015,07,06,06,35,15.50
2015,07,06,06,36,15.60
2015,07,06,06,37,15.60
2015,07,06,06,38,15.70
2015,07,06,06,39,15.70
2015,07,06,06,40,15.80
2015,07,06,06,41,15.80
2015,07,06,06,42,15.90
2015,07,06,06,43,15.90
2015,07,06,06,44,16.00
2015,07,06,06,45,16.00
2015,07,06,06,46,16.10
2015,07,06,06,47,16.10
2015,07,06,06,48,16.10
2015,07,06,06,49,16.20
2015,07,06,06,50,16.20
2015,07,06,06,51,16.20
2015,07,06,06,52,16.30
2015,07,06,06,53,16.30
2015,07,06,06,54,16.30
2015,07,06,06,55,16.20
2015,07,06,06,56,16.20
2015,07,06,06,57,16.10
2015,07,06,06,58,16.00
2015,07,06,06,59,15.90
2015,07,06,07,00,15.80
2015,07,06,07,01,15.70
2015,07,06,07,02,15.70
2015,07,06,07,03,15.50
2015,07,06,07,04,15.40
2015,07,06,07,05,15.30
2015,07,06,07,06,15.20
2015,07,06,07,07,15.00
2015,07,06,07,08,14.90
2015,07,06,07,09,14.80
2015,07,06,07,10,14.80
2015,07,06,07,11,14.70
2015,07,06,07,12,14.60
2015,07,06,07,13,14.60
2015,07,06,07,14,14.50
2015,07,06,07,15,14.50
2015,07,06,07,16,14.50
2015,07,06,07,17,14.40
2015,07,06,07,18,14.40
2015,07,06,07,19,14.40
2015,07,06,07,20,14.40
2015,07,06,07,21,14.30
2015,07,06,07,22,14.40
2015,07,06,07,23,14.40
2015,07,06,07,24,14.40
2015,07,06,07,25,14.40
2015,07,06,07,26,14.40
2015,07,06,07,27,14.50
2015,07,06,07,28,14.60
2015,07,06,07,29,14.60
2015,07,06,07,30,14.60
2015,07,06,07,31,14.70
2015,07,06,07,32,14.70
2015,07,06,07,33,14.80
2015,07,06,07,34,14.80
2015,07,06,07,35,14.80
2015,07,06,07,36,14.80
2015,07,06,07,37,14.90
2015,07,06,07,38,14.90
2015,07,06,07,39,14.90
2015,07,06,07,40,15.00
2015,07,06,07,41,15.00
2015,07,06,07,42,15.00
2015,07,06,07,43,15.00
2015,07,06,07,44,15.00
2015,07,06,07,45,15.00
2015,07,06,07,46,15.00
2015,07,06,07,47,15.00
2015,07,06,07,48,15.00
2015,07,06,07,49,15.00
2015,07,06,07,50,15.00
2015,07,06,07,51,15.00
2015,07,06,07,52,15.00
2015,07,06,07,53,15.00
2015,07,06,07,54,15.00
2015,07,06,07,55,15.00
2015,07,06,07,56,15.10
2015,07,06,07,57,15.10
2015,07,06,07,58,15.10
2015,07,06,07,59,15.10
2015,07,06,08,00,15.20
2015,07,06,08,01,15.20
2015,07,06,08,02,15.20
2015,07,06,08,03,15.20
2015,07,06,08,04,15.20
2015,07,06,08,05,15.20
2015,07,06,08,06,15.20
2015,07,06,08,07,15.30
2015,07,06,08,08,15.30
2015,07,06,08,09,15.30
2015,07,06,08,10,15.30
2015,07,06,08,11,15.30
2015,07,06,08,12,15.30
2015,07,06,08,13,15.30
2015,07,06,08,14,15.30
2015,07,06,08,15,15.30
2015,07,06,08,16,15.30
2015,07,06,08,17,15.30
2015,07,06,08,18,15.30
2015,07,06,08,19,15.30
2015,07,06,08,20,15.30
2015,07,06,08,21,15.30
2015,07,06,08,22,15.30
2015,07,06,08,23,15.30
2015,07,06,08,24,15.40
2015,07,06,08,25,15.40
2015,07,06,08,26,15.40
2015,07,06,08,27,15.40
2015,07,06,08,28,15.50
2015,07,06,08,29,15.50
2015,07,06,08,30,15.60
2015,07,06,08,31,15.60
2015,07,06,08,32,15.70
2015,07,06,08,33,15.70
2015,07,06,08,34,15.70
2015,07,06,08,35,15.70
2015,07,06,08,36,15.70
2015,07,06,08,37,15.60
2015,07,06,08,38,15.60
2015,07,06,08,39,15.60
2015,07,06,08,40,15.60
2015,07,06,08,41,15.60
2015,07,06,08,42,15.60
2015,07,06,08,43,15.60
2015,07,06,08,44,15.60
2015,07,06,08,45,15.60
2015,07,06,08,46,15.60
2015,07,06,08,47,15.60
2015,07,06,08,48,15.70
2015,07,06,08,49,15.70
2015,07,06,08,50,15.80
2015,07,06,08,51,15.80
2015,07,06,08,52,15.80
2015,07,06,08,53,15.90
2015,07,06,08,54,15.90
2015,07,06,08,55,15.90
2015,07,06,08,56,16.00
2015,07,06,08,57,16.00
2015,07,06,08,58,16.10
2015,07,06,08,59,16.10
2015,07,06,09,00,16.10
2015,07,06,09,01,16.20
2015,07,06,09,02,16.20
2015,07,06,09,03,16.30
2015,07,06,09,04,16.30
2015,07,06,09,05,16.30
2015,07,06,09,06,16.40
2015,07,06,09,07,16.40
2015,07,06,09,08,16.50
2015,07,06,09,09,16.50
2015,07,06,09,10,16.60
2015,07,06,09,11,16.60
2015,07,06,09,12,16.70
2015,07,06,09,13,16.70
2015,07,06,09,14,16.80
2015,07,06,09,15,16.80
2015,07,06,09,16,16.80
2015,07,06,09,17,16.90
2015,07,06,09,18,16.90
2015,07,06,09,19,17.00
2015,07,06,09,20,17.00
2015,07,06,09,21,17.10
2015,07,06,09,22,17.20
2015,07,06,09,23,17.20
2015,07,06,09,24,17.20
2015,07,06,09,25,17.30
2015,07,06,09,26,17.30
2015,07,06,09,27,17.20
2015,07,06,09,28,17.20
2015,07,06,09,29,17.20
2015,07,06,09,30,17.10
2015,07,06,09,31,17.10
2015,07,06,09,32,17.00
2015,07,06,09,33,16.90
2015,07,06,09,34,16.90
2015,07,06,09,35,16.90
2015,07,06,09,36,16.90
2015,07,06,09,37,16.90
2015,07,06,09,38,16.90
2015,07,06,09,39,17.00
2015,07,06,09,40,17.00
2015,07,06,09,41,17.00
2015,07,06,09,42,17.10
2015,07,06,09,43,17.10
2015,07,06,09,44,17.10
2015,07,06,09,45,17.20
2015,07,06,09,46,17.20
2015,07,06,09,47,17.20
2015,07,06,09,48,17.20
2015,07,06,09,49,17.20
2015,07,06,09,50,17.20
2015,07,06,09,51,17.20
2015,07,06,09,52,17.20
2015,07,06,09,53,17.20
2015,07,06,09,54,17.20
2015,07,06,09,55,17.20
2015,07,06,09,56,17.20
2015,07,06,09,57,17.20
2015,07,06,09,58,17.10
2015,07,06,09,59,17.10
2015,07,06,10,00,17.00
2015,07,06,10,01,17.00
2015,07,06,10,02,16.90
2015,07,06,10,03,16.90
2015,07,06,10,04,16.80
2015,07,06,10,05,16.80
2015,07,06,10,06,16.80
2015,07,06,10,07,16.80
2015,07,06,10,08,16.80
2015,07,06,10,09,16.80
2015,07,06,10,10,16.80
2015,07,06,10,11,16.80
2015,07,06,10,12,16.80
2015,07,06,10,13,16.80
2015,07,06,10,14,16.90
2015,07,06,10,15,16.90
2015,07,06,10,16,16.90
2015,07,06,10,17,16.90
2015,07,06,10,18,17.00
2015,07,06,10,19,17.00
2015,07,06,10,20,17.10
2015,07,06,10,21,17.10
2015,07,06,10,22,17.10
2015,07,06,10,23,17.10
2015,07,06,10,24,17.20
2015,07,06,10,25,17.20
2015,07,06,10,26,17.20
2015,07,06,10,27,17.20
2015,07,06,10,28,17.20
2015,07,06,10,29,17.20
2015,07,06,10,30,17.20
2015,07,06,10,31,17.20
2015,07,06,10,32,17.20
2015,07,06,10,33,17.30
2015,07,06,10,34,17.30
2015,07,06,10,35,17.30
2015,07,06,10,36,17.30
2015,07,06,10,37,17.30
2015,07,06,10,38,17.40
2015,07,06,10,39,17.40
2015,07,06,10,40,17.40
2015,07,06,10,41,17.50
2015,07,06,10,42,17.50
2015,07,06,10,43,17.60
2015,07,06,10,44,17.60
2015,07,06,10,45,17.70
2015,07,06,10,46,17.70
2015,07,06,10,47,17.70
2015,07,06,10,48,17.70
2015,07,06,10,49,17.70
2015,07,06,10,50,17.80
2015,07,06,10,51,17.80
2015,07,06,10,52,17.80
2015,07,06,10,53,17.80
2015,07,06,10,54,17.80
2015,07,06,10,55,17.70
2015,07,06,10,56,17.70
2015,07,06,10,57,17.70
2015,07,06,10,58,17.60
2015,07,06,10,59,17.60
2015,07,06,11,00,17.60
2015,07,06,11,01,17.60
2015,07,06,11,02,17.60
2015,07,06,11,03,17.60
2015,07,06,11,04,17.60
2015,07,06,11,05,17.70
2015,07,06,11,06,17.70
2015,07,06,11,07,17.70
2015,07,06,11,08,17.70
2015,07,06,11,09,17.70
2015,07,06,11,10,17.60
2015,07,06,11,11,17.60
2015,07,06,11,12,17.60
2015,07,06,11,13,17.60
2015,07,06,11,14,17.60
2015,07,06,11,15,17.60
2015,07,06,11,16,17.50
2015,07,06,11,17,17.60
2015,07,06,11,18,17.50
2015,07,06,11,19,17.50
2015,07,06,11,20,17.50
2015,07,06,11,21,17.50
2015,07,06,11,22,17.60
2015,07,06,11,23,17.60
2015,07,06,11,24,17.70
2015,07,06,11,25,17.70
2015,07,06,11,26,17.70
2015,07,06,11,27,17.80
2015,07,06,11,28,17.80
2015,07,06,11,29,17.80
2015,07,06,11,30,17.90
2015,07,06,11,31,17.90
2015,07,06,11,32,17.90
2015,07,06,11,33,17.90
2015,07,06,11,34,17.90
2015,07,06,11,35,17.90
2015,07,06,11,36,17.90
2015,07,06,11,37,17.90
2015,07,06,11,38,17.90
2015,07,06,11,39,17.80
2015,07,06,11,40,17.80
2015,07,06,11,41,17.80
2015,07,06,11,42,17.80
2015,07,06,11,43,17.90
2015,07,06,11,44,17.80
2015,07,06,11,45,17.80
2015,07,06,11,46,17.80
2015,07,06,11,47,17.80
2015,07,06,11,48,17.80
2015,07,06,11,49,17.80
2015,07,06,11,50,17.80
2015,07,06,11,51,17.80
2015,07,06,11,52,17.80
2015,07,06,11,53,17.80
2015,07,06,11,54,17.90
2015,07,06,11,55,17.90
2015,07,06,11,56,18.00
2015,07,06,11,57,18.00
2015,07,06,11,58,18.10
2015,07,06,11,59,18.10
2015,07,06,12,00,18.10
2015,07,06,12,01,18.00
2015,07,06,12,02,18.00
2015,07,06,12,03,18.00
2015,07,06,12,04,18.00
2015,07,06,12,05,18.00
2015,07,06,12,06,18.00
2015,07,06,12,07,18.00
2015,07,06,12,08,18.00
2015,07,06,12,09,18.00
2015,07,06,12,10,18.00
2015,07,06,12,11,18.10
2015,07,06,12,12,18.10
2015,07,06,12,13,18.10
2015,07,06,12,14,18.10
2015,07,06,12,15,18.20
2015,07,06,12,16,18.20
2015,07,06,12,17,18.20
2015,07,06,12,18,18.20
2015,07,06,12,19,18.20
2015,07,06,12,20,18.30
2015,07,06,12,21,18.30
2015,07,06,12,22,18.30
2015,07,06,12,23,18.40
2015,07,06,12,24,18.40
2015,07,06,12,25,18.40
2015,07,06,12,26,18.50
2015,07,06,12,27,18.60
2015,07,06,12,28,18.60
2015,07,06,12,29,18.60
2015,07,06,12,30,18.60
2015,07,06,12,31,18.50
2015,07,06,12,32,18.50
2015,07,06,12,33,18.50
2015,07,06,12,34,18.50
2015,07,06,12,35,18.50
2015,07,06,12,36,18.50
2015,07,06,12,37,18.50
2015,07,06,12,38,18.60
2015,07,06,12,39,18.60
2015,07,06,12,40,18.60
2015,07,06,12,41,18.60
2015,07,06,12,42,18.60
2015,07,06,12,43,18.60
2015,07,06,12,44,18.60
2015,07,06,12,45,18.50
2015,07,06,12,46,18.50
2015,07,06,12,47,18.50
2015,07,06,12,48,18.50
2015,07,06,12,49,18.40
2015,07,06,12,50,18.40
2015,07,06,12,51,18.40
2015,07,06,12,52,18.40
2015,07,06,12,53,18.40
2015,07,06,12,54,18.40
2015,07,06,12,55,18.40
2015,07,06,12,56,18.50
2015,07,06,12,57,18.50
2015,07,06,12,58,18.60
2015,07,06,12,59,18.60
2015,07,06,13,00,18.60
2015,07,06,13,01,18.60
2015,07,06,13,02,18.50
2015,07,06,13,03,18.50
2015,07,06,13,04,18.40
2015,07,06,13,05,18.40
2015,07,06,13,06,18.40
2015,07,06,13,07,18.40
2015,07,06,13,08,18.40
2015,07,06,13,09,18.40
2015,07,06,13,10,18.30
2015,07,06,13,11,18.30
2015,07,06,13,12,18.30
2015,07,06,13,13,18.30
2015,07,06,13,14,18.30
2015,07,06,13,15,18.40
2015,07,06,13,16,18.40
2015,07,06,13,17,18.50
2015,07,06,13,18,18.50
2015,07,06,13,19,18.50
2015,07,06,13,20,18.50
2015,07,06,13,21,18.50
2015,07,06,13,22,18.60
2015,07,06,13,23,18.60
2015,07,06,13,24,18.60
2015,07,06,13,25,18.70
2015,07,06,13,26,18.70
2015,07,06,13,27,18.80
2015,07,06,13,28,18.80
2015,07,06,13,29,18.80
2015,07,06,13,30,18.80
2015,07,06,13,31,18.80
2015,07,06,13,32,18.80
2015,07,06,13,33,18.80
2015,07,06,13,34,18.70
2015,07,06,13,35,18.70
2015,07,06,13,36,18.70
2015,07,06,13,37,18.70
2015,07,06,13,38,18.80
2015,07,06,13,39,18.80
2015,07,06,13,40,18.90
2015,07,06,13,41,18.90
2015,07,06,13,42,18.90
2015,07,06,13,43,18.90
2015,07,06,13,44,18.90
2015,07,06,13,45,18.90
2015,07,06,13,46,18.90
2015,07,06,13,47,19.00
2015,07,06,13,48,19.00
2015,07,06,13,49,19.10
2015,07,06,13,50,19.10
2015,07,06,13,51,19.20
2015,07,06,13,52,19.20
2015,07,06,13,53,19.20
2015,07,06,13,54,19.30
2015,07,06,13,55,19.30
2015,07,06,13,56,19.30
2015,07,06,13,57,19.30
2015,07,06,13,58,19.30
2015,07,06,13,59,19.40
2015,07,06,14,00,19.40
2015,07,06,14,01,19.40
2015,07,06,14,02,19.40
2015,07,06,14,03,19.40
2015,07,06,14,04,19.50
2015,07,06,14,05,19.40
2015,07,06,14,06,19.40
2015,07,06,14,07,19.40
2015,07,06,14,08,19.40
2015,07,06,14,09,19.30
2015,07,06,14,10,19.30
2015,07,06,14,11,19.30
2015,07,06,14,12,19.30
2015,07,06,14,13,19.40
2015,07,06,14,14,19.50
2015,07,06,14,15,19.50
2015,07,06,14,16,19.60
2015,07,06,14,17,19.70
2015,07,06,14,18,19.70
2015,07,06,14,19,19.70
2015,07,06,14,20,19.70
2015,07,06,14,21,19.80
2015,07,06,14,22,19.80
2015,07,06,14,23,19.80
2015,07,06,14,24,19.80
2015,07,06,14,25,19.80
2015,07,06,14,26,19.80
2015,07,06,14,27,19.90
2015,07,06,14,28,20.00
2015,07,06,14,29,20.00
2015,07,06,14,30,20.00
2015,07,06,14,31,20.10
2015,07,06,14,32,20.10
2015,07,06,14,33,20.20
2015,07,06,14,34,20.20
2015,07,06,14,35,20.20
2015,07,06,14,36,20.30
2015,07,06,14,37,20.30
2015,07,06,14,38,20.30
2015,07,06,14,39,20.30
2015,07,06,14,40,20.30
2015,07,06,14,41,20.20
2015,07,06,14,42,20.20
2015,07,06,14,43,20.20
2015,07,06,14,44,20.10
2015,07,06,14,45,20.10
2015,07,06,14,46,20.00
2015,07,06,14,47,19.90
2015,07,06,14,48,19.90
2015,07,06,14,49,19.90
2015,07,06,14,50,19.90
2015,07,06,14,51,19.80
2015,07,06,14,52,19.80
2015,07,06,14,53,19.80
2015,07,06,14,54,19.70
2015,07,06,14,55,19.60
2015,07,06,14,56,19.50
2015,07,06,14,57,19.40
2015,07,06,14,58,19.30
2015,07,06,14,59,19.30
2015,07,06,15,00,19.20
2015,07,06,15,01,19.20
2015,07,06,15,02,19.10
2015,07,06,15,03,19.10
2015,07,06,15,04,19.10
2015,07,06,15,05,19.10
2015,07,06,15,06,19.10
2015,07,06,15,07,19.10
2015,07,06,15,08,19.20
2015,07,06,15,09,19.20
2015,07,06,15,10,19.20
2015,07,06,15,11,19.20
2015,07,06,15,12,19.20
2015,07,06,15,13,19.30
2015,07,06,15,14,19.30
2015,07,06,15,15,19.30
2015,07,06,15,16,19.40
2015,07,06,15,17,19.40
2015,07,06,15,18,19.40
2015,07,06,15,19,19.40
2015,07,06,15,20,19.40
2015,07,06,15,21,19.30
2015,07,06,15,22,19.30
2015,07,06,15,23,19.30
2015,07,06,15,24,19.30
2015,07,06,15,25,19.40
2015,07,06,15,26,19.40
2015,07,06,15,27,19.40
2015,07,06,15,28,19.40
2015,07,06,15,29,19.40
2015,07,06,15,30,19.40
2015,07,06,15,31,19.40
2015,07,06,15,32,19.40
2015,07,06,15,33,19.50
2015,07,06,15,34,19.50
2015,07,06,15,35,19.50
2015,07,06,15,36,19.60
2015,07,06,15,37,19.60
2015,07,06,15,38,19.60
2015,07,06,15,39,19.70
2015,07,06,15,40,19.70
2015,07,06,15,41,19.70
2015,07,06,15,42,19.70
2015,07,06,15,43,19.70
2015,07,06,15,44,19.80
2015,07,06,15,45,19.80
2015,07,06,15,46,19.80
2015,07,06,15,47,19.80
2015,07,06,15,48,19.80
2015,07,06,15,49,19.80
2015,07,06,15,50,19.80
2015,07,06,15,51,19.80
2015,07,06,15,52,19.90
2015,07,06,15,53,19.90
2015,07,06,15,54,19.90
2015,07,06,15,55,19.90
2015,07,06,15,56,19.90
2015,07,06,15,57,19.80
2015,07,06,15,58,19.80
2015,07,06,15,59,19.80
2015,07,06,16,00,19.70
2015,07,06,16,01,19.60
2015,07,06,16,02,19.60
2015,07,06,16,03,19.50
2015,07,06,16,04,19.40
2015,07,06,16,05,19.40
2015,07,06,16,06,19.40
2015,07,06,16,07,19.40
2015,07,06,16,08,19.40
2015,07,06,16,09,19.40
2015,07,06,16,10,19.40
2015,07,06,16,11,19.40
2015,07,06,16,12,19.40
2015,07,06,16,13,19.40
2015,07,06,16,14,19.40
2015,07,06,16,15,19.40
2015,07,06,16,16,19.40
2015,07,06,16,17,19.50
2015,07,06,16,18,19.60
2015,07,06,16,19,19.60
2015,07,06,16,20,19.60
2015,07,06,16,21,19.70
2015,07,06,16,22,19.70
2015,07,06,16,23,19.70
2015,07,06,16,24,19.70
2015,07,06,16,25,19.70
2015,07,06,16,26,19.70
2015,07,06,16,27,19.70
2015,07,06,16,28,19.70
2015,07,06,16,29,19.70
2015,07,06,16,30,19.70
2015,07,06,16,31,19.60
2015,07,06,16,32,19.60
2015,07,06,16,33,19.60
2015,07,06,16,34,19.60
2015,07,06,16,35,19.60
2015,07,06,16,36,19.60
2015,07,06,16,37,19.50
2015,07,06,16,38,19.60
2015,07,06,16,39,19.50
2015,07,06,16,40,19.50
2015,07,06,16,41,19.50
2015,07,06,16,42,19.40
2015,07,06,16,43,19.30
2015,07,06,16,44,19.20
2015,07,06,16,45,19.10
2015,07,06,16,46,19.10
2015,07,06,16,47,19.00
2015,07,06,16,48,19.00
2015,07,06,16,49,19.00
2015,07,06,16,50,19.00
2015,07,06,16,51,19.00
2015,07,06,16,52,19.00
2015,07,06,16,53,19.00
2015,07,06,16,54,19.00
2015,07,06,16,55,18.90
2015,07,06,16,56,18.90
2015,07,06,16,57,18.90
2015,07,06,16,58,19.00
2015,07,06,16,59,19.00
2015,07,06,17,00,19.00
2015,07,06,17,01,19.00
2015,07,06,17,02,19.00
2015,07,06,17,03,19.00
2015,07,06,17,04,19.00
2015,07,06,17,05,19.00
2015,07,06,17,06,18.90
2015,07,06,17,07,18.90
2015,07,06,17,08,18.90
2015,07,06,17,09,18.80
2015,07,06,17,10,18.80
2015,07,06,17,11,18.80
2015,07,06,17,12,18.80
2015,07,06,17,13,18.80
2015,07,06,17,14,18.80
2015,07,06,17,15,18.80
2015,07,06,17,16,18.80
2015,07,06,17,17,18.80
2015,07,06,17,18,18.80
2015,07,06,17,19,18.80